When you browse on this site, cookies collect data to enhance your experience and personalize the content and advertising you see.
Visit our Privacy Policy to learn more. By continuing to use the site, you agree to this use of cookies and data.
  • In Schweiz
  • Länderverzeichnis
  • Für 7 Tage
  • Wassertemperatur
  • Wetterkarte
  • Widgets
  • user-avatar
    Anmelden

    Stündliche Wetter Lausanne

    Heute, 25 Februar, Dienstag

    Zeit Temperatur Niederschläge Wind Luftdruck Luftfeuchtigkeit
    00:00 +9°C° 0 mm 3 m/S 720 mmHg 78%
    01:00 +8°C° 0 mm 3 m/S 719 mmHg 78%
    02:00 +8°C° 0 mm 3 m/S 719 mmHg 77%
    03:00 +7°C° 0 mm 2 m/S 718 mmHg 77%
    04:00 +7°C° 0 mm 3 m/S 718 mmHg 77%
    05:00 +7°C° 0 mm 3 m/S 718 mmHg 77%
    06:00 +7°C° 0 mm 3 m/S 718 mmHg 74%
    07:00 +8°C° 0 mm 3 m/S 718 mmHg 72%
    08:00 +8°C° 0 mm 4 m/S 717 mmHg 69%
    09:00 +10°C° 0 mm 4 m/S 717 mmHg 66%
    10:00 +9°C° 0.4 mm 5 m/S 717 mmHg 70%
    11:00 +8°C° 0.4 mm 5 m/S 716 mmHg 73%
    12:00 +8°C° 0 mm 6 m/S 716 mmHg 80%
    13:00 +7°C° 0.8 mm 6 m/S 716 mmHg 84%
    14:00 +7°C° 0.8 mm 5 m/S 715 mmHg 88%
    15:00 +6°C° 0.8 mm 5 m/S 715 mmHg 92%
    16:00 +6°C° 0.5 mm 5 m/S 714 mmHg 92%
    17:00 +6°C° 0.5 mm 5 m/S 714 mmHg 92%
    18:00 +5°C° 0.5 mm 6 m/S 714 mmHg 92%
    19:00 +5°C° 0.8 mm 6 m/S 714 mmHg 92%
    20:00 +4°C° 0.8 mm 6 m/S 714 mmHg 91%
    21:00 +4°C° 0.8 mm 6 m/S 713 mmHg 90%
    22:00 +3°C° 0.9 mm 6 m/S 713 mmHg 91%
    23:00 +3°C° 0.9 mm 7 m/S 713 mmHg 91%

    Morgen, 26 Februar, Mittwoch

    Zeit Temperatur Niederschläge Wind Luftdruck Luftfeuchtigkeit
    00:00 +2°C° 0.9 mm 7 m/S 713 mmHg 91%
    01:00 +2°C° 1.5 mm 7 m/S 713 mmHg 92%
    02:00 0°C° 1.5 mm 7 m/S 713 mmHg 93%
    03:00 0°C° 1.5 mm 7 m/S 713 mmHg 94%
    04:00 -1°C° 0.5 mm 7 m/S 712 mmHg 93%
    05:00 -2°C° 0.5 mm 6 m/S 712 mmHg 92%
    06:00 -2°C° 0.5 mm 5 m/S 712 mmHg 91%
    07:00 -2°C° 1 mm 6 m/S 712 mmHg 89%
    08:00 -2°C° 1 mm 6 m/S 712 mmHg 88%
    09:00 -2°C° 1 mm 6 m/S 713 mmHg 87%
    10:00 -2°C° 0.7 mm 6 m/S 713 mmHg 85%
    11:00 -2°C° 0.7 mm 6 m/S 714 mmHg 84%
    12:00 -1°C° 0.7 mm 6 m/S 714 mmHg 83%
    13:00 -1°C° 1 mm 6 m/S 715 mmHg 83%
    14:00 -1°C° 1 mm 6 m/S 715 mmHg 83%
    15:00 -1°C° 1 mm 5 m/S 715 mmHg 83%
    16:00 -1°C° 0.7 mm 5 m/S 716 mmHg 86%
    17:00 -1°C° 0.7 mm 5 m/S 716 mmHg 88%
    18:00 -2°C° 0.7 mm 4 m/S 717 mmHg 91%
    19:00 -2°C° 0.5 mm 4 m/S 717 mmHg 92%
    20:00 -2°C° 0.5 mm 4 m/S 718 mmHg 92%
    21:00 -2°C° 0.5 mm 4 m/S 718 mmHg 93%
    22:00 -2°C° 0.5 mm 4 m/S 719 mmHg 93%
    23:00 -2°C° 0.5 mm 4 m/S 719 mmHg 93%

    übermorgen, 27 Februar, Donnerstag

    Zeit Temperatur Niederschläge Wind Luftdruck Luftfeuchtigkeit
    00:00 -2°C° 0.5 mm 4 m/S 720 mmHg 94%
    01:00 -2°C° 0.2 mm 4 m/S 720 mmHg 94%
    02:00 -2°C° 0.2 mm 3 m/S 720 mmHg 94%
    03:00 -2°C° 0.2 mm 3 m/S 720 mmHg 93%
    04:00 -2°C° 0 mm 3 m/S 719 mmHg 92%
    05:00 -2°C° 0 mm 3 m/S 719 mmHg 90%
    06:00 -4°C° 0 mm 3 m/S 718 mmHg 88%
    07:00 -3°C° 0 mm 4 m/S 717 mmHg 84%
    08:00 -1°C° 0 mm 4 m/S 716 mmHg 79%
    09:00 0°C° 0 mm 5 m/S 715 mmHg 74%
    10:00 0°C° 0.4 mm 5 m/S 714 mmHg 79%
    11:00 +1°C° 0.4 mm 6 m/S 714 mmHg 84%
    12:00 0°C° 0.4 mm 7 m/S 713 mmHg 88%
    13:00 +2°C° 0.9 mm 7 m/S 712 mmHg 91%
    14:00 +1°C° 0.9 mm 8 m/S 711 mmHg 93%
    15:00 +2°C° 0.9 mm 8 m/S 711 mmHg 96%
    16:00 +2°C° 1.7 mm 8 m/S 712 mmHg 96%
    17:00 +2°C° 1.7 mm 8 m/S 713 mmHg 96%
    18:00 +4°C° 1.7 mm 7 m/S 713 mmHg 96%
    19:00 +3°C° 0.7 mm 7 m/S 715 mmHg 95%
    20:00 +2°C° 0.7 mm 6 m/S 716 mmHg 94%
    21:00 +1°C° 0.7 mm 6 m/S 717 mmHg 93%
    22:00 0°C° 0.3 mm 5 m/S 718 mmHg 93%
    23:00 0°C° 0.3 mm 4 m/S 719 mmHg 93%

    28 Februar, Freitag

    Zeit Temperatur Niederschläge Wind Luftdruck Luftfeuchtigkeit
    00:00 0°C° 0.3 mm 3 m/S 720 mmHg 93%
    01:00 -1°C° 0.2 mm 3 m/S 721 mmHg 93%
    02:00 -1°C° 0.2 mm 2 m/S 721 mmHg 93%
    03:00 -2°C° 0.2 mm 2 m/S 722 mmHg 93%
    04:00 -3°C° 0 mm 2 m/S 722 mmHg 91%
    05:00 -3°C° 0 mm 2 m/S 723 mmHg 90%
    06:00 -2°C° 0 mm 1 m/S 723 mmHg 88%
    07:00 0°C° 0 mm 1 m/S 723 mmHg 86%
    08:00 +2°C° 0 mm 1 m/S 723 mmHg 83%
    09:00 +3°C° 0 mm 1 m/S 723 mmHg 80%
    10:00 +4°C° 0 mm 1 m/S 722 mmHg 80%
    11:00 +6°C° 0 mm 1 m/S 722 mmHg 80%
    12:00 +7°C° 0 mm 1 m/S 722 mmHg 80%
    13:00 +6°C° 0 mm 2 m/S 721 mmHg 82%
    14:00 +6°C° 0 mm 2 m/S 721 mmHg 83%
    15:00 +6°C° 0 mm 2 m/S 720 mmHg 85%
    16:00 +4°C° 0 mm 3 m/S 720 mmHg 83%
    17:00 +4°C° 0 mm 3 m/S 720 mmHg 82%
    18:00 +4°C° 0 mm 3 m/S 720 mmHg 80%
    19:00 +4°C° 0.4 mm 3 m/S 720 mmHg 84%
    20:00 +4°C° 0.4 mm 3 m/S 720 mmHg 88%
    21:00 +4°C° 0.4 mm 3 m/S 720 mmHg 92%
    22:00 +4°C° 0.3 mm 3 m/S 720 mmHg 92%
    23:00 +5°C° 0.3 mm 3 m/S 720 mmHg 93%

    29 Februar, Samstag

    Zeit Temperatur Niederschläge Wind Luftdruck Luftfeuchtigkeit
    00:00 +6°C° 0.3 mm 2 m/S 719 mmHg 93%
    01:00 +6°C° 0 mm 2 m/S 719 mmHg 92%
    02:00 +6°C° 0 mm 2 m/S 718 mmHg 91%
    03:00 +6°C° 0 mm 2 m/S 718 mmHg 90%
    04:00 +6°C° 0 mm 2 m/S 717 mmHg 89%
    05:00 +6°C° 0 mm 2 m/S 716 mmHg 89%
    06:00 +6°C° 0 mm 2 m/S 716 mmHg 88%
    07:00 +7°C° 0 mm 2 m/S 715 mmHg 89%
    08:00 +8°C° 0 mm 2 m/S 715 mmHg 90%
    09:00 +8°C° 0 mm 2 m/S 714 mmHg 91%
    10:00 +9°C° 0 mm 3 m/S 714 mmHg 90%
    11:00 +10°C° 0 mm 4 m/S 713 mmHg 89%
    12:00 +10°C° 0 mm 4 m/S 713 mmHg 88%
    13:00 +9°C° 0 mm 5 m/S 713 mmHg 88%
    14:00 +9°C° 0 mm 5 m/S 713 mmHg 89%
    15:00 +8°C° 0 mm 5 m/S 713 mmHg 89%
    16:00 +8°C° 0.6 mm 5 m/S 713 mmHg 90%
    17:00 +7°C° 0.6 mm 5 m/S 713 mmHg 91%
    18:00 +6°C° 0.6 mm 5 m/S 713 mmHg 92%
    19:00 +6°C° 2.9 mm 5 m/S 714 mmHg 93%
    20:00 +5°C° 2.9 mm 4 m/S 714 mmHg 95%
    21:00 +4°C° 2.9 mm 4 m/S 715 mmHg 96%
    22:00 +4°C° 2.2 mm 3 m/S 715 mmHg 96%
    23:00 +3°C° 2.2 mm 3 m/S 715 mmHg 97%

    1 März, Sonntag

    Zeit Temperatur Niederschläge Wind Luftdruck Luftfeuchtigkeit
    00:00 +3°C° 2.2 mm 3 m/S 716 mmHg 97%
    01:00 +3°C° 0.6 mm 3 m/S 716 mmHg 96%
    02:00 +2°C° 0.6 mm 3 m/S 716 mmHg 95%
    03:00 +2°C° 0.6 mm 3 m/S 716 mmHg 93%
    04:00 +2°C° 0.1 mm 3 m/S 716 mmHg 92%
    05:00 +2°C° 0.1 mm 3 m/S 716 mmHg 91%
    06:00 +2°C° 0.1 mm 3 m/S 716 mmHg 90%
    07:00 +1°C° 0 mm 4 m/S 716 mmHg 88%
    08:00 +3°C° 0 mm 4 m/S 716 mmHg 86%
    09:00 +3°C° 0 mm 5 m/S 716 mmHg 84%
    10:00 +5°C° 0 mm 5 m/S 715 mmHg 83%
    11:00 +5°C° 0 mm 5 m/S 715 mmHg 81%
    12:00 +6°C° 0 mm 5 m/S 715 mmHg 80%
    13:00 +6°C° 0 mm 5 m/S 714 mmHg 79%
    14:00 +6°C° 0 mm 5 m/S 713 mmHg 79%
    15:00 +6°C° 0 mm 5 m/S 713 mmHg 78%
    16:00 +6°C° 0 mm 5 m/S 713 mmHg 80%
    17:00 +5°C° 0 mm 4 m/S 712 mmHg 81%
    18:00 +4°C° 0 mm 4 m/S 712 mmHg 82%
    19:00 +4°C° 0.5 mm 4 m/S 712 mmHg 85%
    20:00 +2°C° 0.5 mm 5 m/S 712 mmHg 88%
    21:00 +2°C° 0.5 mm 5 m/S 712 mmHg 92%
    22:00 +2°C° 0.8 mm 6 m/S 712 mmHg 92%
    23:00 +3°C° 0.8 mm 6 m/S 713 mmHg 92%
    Mehr zeigen